OK1KKY-18 Weather Reports


time (UTC)temp
F
wind
direction
speed
knots
gust
knots
rain 1hr
in
rain 24hr
in
rain mn
in
humidity
%
barometer
mb
20260502181552 53 0.0 0.0 0.00 0.00 0.00 49 1020.6
20260502180553 54 0.0 0.0 0.00 0.00 0.00 49 1020.6
20260502163553 64 0.0 0.0 0.00 0.00 0.00 35 1020.8
20260502162553 65 0.0 0.0 0.00 0.00 0.00 32 1020.8
20260502161553 66 0.0 0.0 0.00 0.00 0.00 31 1020.9
20260502160553 68 0.0 0.0 0.00 0.00 0.00 27 1021.0
20260502151559 75 0.0 0.0 0.00 0.00 0.00 20 1021.4
20260502112822 70 0.0 0.0 0.00 0.00 0.00 23 1024.1
20260502111822 69 0.0 0.0 0.00 0.00 0.00 27 1024.2
20260502110822 69 0.0 0.0 0.00 0.00 0.00 27 1024.3
20260502105822 69 0.0 0.0 0.00 0.00 0.00 25 1024.5
20260502104822 68 0.0 0.0 0.00 0.00 0.00 24 1024.5
20260502103823 69 0.0 0.0 0.00 0.00 0.00 23 1024.7
20260502102823 68 0.0 0.0 0.00 0.00 0.00 25 1024.7
20260502101823 67 0.0 0.0 0.00 0.00 0.00 26 1024.8
20260502100826 68 0.0 0.0 0.00 0.00 0.00 26 1024.9
20260502090822 65 0.0 0.0 0.00 0.00 0.00 28 1025.4
20260502070822 58 0.0 0.0 0.00 0.00 0.00 49 1026.0
20260502065822 56 0.0 0.0 0.00 0.00 0.00 53 1026.1
20260502064822 54 0.0 0.0 0.00 0.00 0.00 53 1026.2
20260502063822 53 0.0 0.0 0.00 0.00 0.00 55 1026.2
20260502062822 52 0.0 0.0 0.00 0.00 0.00 57 1026.3
20260502061822 50 0.0 0.0 0.00 0.00 0.00 60 1026.3
20260502060822 49 0.0 0.0 0.00 0.00 0.00 64 1026.2
20260502055821 47 0.0 0.0 0.00 0.00 0.00 66 1026.3
20260502054823 46 0.0 0.0 0.00 0.00 0.00 68 1026.4
20260502053829 45 0.0 0.0 0.00 0.00 0.00 68 1026.3
20260502052821 44 0.0 0.0 0.00 0.00 0.00 70 1026.4
20260502051822 43 0.0 0.0 0.00 0.00 0.00 71 1026.4
20260502050822 42 0.0 0.0 0.00 0.00 0.00 72 1026.4
20260502045822 42 0.0 0.0 0.00 0.00 0.00 72 1026.4
20260502044822 42 0.0 0.0 0.00 0.00 0.00 72 1026.4
20260502043822 42 0.0 0.0 0.00 0.00 0.00 73 1026.4
20260502042821 42 0.0 0.0 0.00 0.00 0.00 73 1026.4
20260502041822 42 0.0 0.0 0.00 0.00 0.00 73 1026.5
20260502040822 41 0.0 0.0 0.00 0.00 0.00 73 1026.4
20260502035821 42 0.0 0.0 0.00 0.00 0.00 73 1026.4
20260502034822 41 0.0 0.0 0.00 0.00 0.00 74 1026.4
20260502033826 42 0.0 0.0 0.00 0.00 0.00 72 1026.5
20260502032821 41 0.0 0.0 0.00 0.00 0.00 73 1026.5
20260502031821 41 0.0 0.0 0.00 0.00 0.00 73 1026.5
20260502030822 41 0.0 0.0 0.00 0.00 0.00 72 1026.6
20260502025821 41 0.0 0.0 0.00 0.00 0.00 72 1026.7
20260502024822 42 0.0 0.0 0.00 0.00 0.00 70 1026.7
20260502023821 42 0.0 0.0 0.00 0.00 0.00 70 1026.8
20260502022822 42 0.0 0.0 0.00 0.00 0.00 70 1026.7
20260502021822 41 0.0 0.0 0.00 0.00 0.00 71 1026.7
20260502020822 41 0.0 0.0 0.00 0.00 0.00 71 1026.9
20260502015822 42 0.0 0.0 0.00 0.00 0.00 70 1026.8
20260502014822 42 0.0 0.0 0.00 0.00 0.00 69 1026.9
20260502013821 42 0.0 0.0 0.00 0.00 0.00 68 1026.9
20260502012823 43 0.0 0.0 0.00 0.00 0.00 68 1026.8
20260502011822 42 0.0 0.0 0.00 0.00 0.00 69 1026.9
20260502010822 43 0.0 0.0 0.00 0.00 0.00 67 1026.9
20260502005821 42 0.0 0.0 0.00 0.00 0.00 68 1026.9
20260502004822 42 0.0 0.0 0.00 0.00 0.00 68 1027.0
20260502003822 42 0.0 0.0 0.00 0.00 0.00 68 1027.0
20260502002822 42 0.0 0.0 0.00 0.00 0.00 69 1027.1
20260502001822 42 0.0 0.0 0.00 0.00 0.00 68 1027.1
20260502000822 43 0.0 0.0 0.00 0.00 0.00 68 1027.2
20260501235822 44 0.0 0.0 0.00 0.00 0.00 65 1027.1
20260501234822 43 0.0 0.0 0.00 0.00 0.00 65 1027.2
20260501233822 43 0.0 0.0 0.00 0.00 0.00 67 1027.2
20260501232822 43 0.0 0.0 0.00 0.00 0.00 68 1027.2
20260501231821 43 0.0 0.0 0.00 0.00 0.00 67 1027.3
20260501230822 43 0.0 0.0 0.00 0.00 0.00 66 1027.2
20260501225822 44 0.0 0.0 0.00 0.00 0.00 66 1027.2
20260501224823 43 0.0 0.0 0.00 0.00 0.00 67 1027.4
20260501223823 43 0.0 0.0 0.00 0.00 0.00 67 1027.4
20260501222822 44 0.0 0.0 0.00 0.00 0.00 66 1027.4
20260501220822 44 0.0 0.0 0.00 0.00 0.00 65 1027.4
20260501215822 44 0.0 0.0 0.00 0.00 0.00 65 1027.4
20260501214822 45 0.0 0.0 0.00 0.00 0.00 64 1027.3
20260501213822 45 0.0 0.0 0.00 0.00 0.00 63 1027.3
20260501212822 46 0.0 0.0 0.00 0.00 0.00 62 1027.4
20260501211826 46 0.0 0.0 0.00 0.00 0.00 63 1027.4
20260501210820 46 0.0 0.0 0.00 0.00 0.00 61 1027.4
20260501205820 46 0.0 0.0 0.00 0.00 0.00 62 1027.4
20260501204820 46 0.0 0.0 0.00 0.00 0.00 61 1027.4
20260501203820 47 0.0 0.0 0.00 0.00 0.00 61 1027.5
20260501202821 47 0.0 0.0 0.00 0.00 0.00 60 1027.5
20260501201821 47 0.0 0.0 0.00 0.00 0.00 60 1027.5
20260501200820 48 0.0 0.0 0.00 0.00 0.00 60 1027.5
20260501195820 48 0.0 0.0 0.00 0.00 0.00 61 1027.5
20260501194820 48 0.0 0.0 0.00 0.00 0.00 59 1027.5
20260501193820 48 0.0 0.0 0.00 0.00 0.00 58 1027.4
20260501192820 49 0.0 0.0 0.00 0.00 0.00 58 1027.4
20260501191821 49 0.0 0.0 0.00 0.00 0.00 58 1027.4
20260501190823 50 0.0 0.0 0.00 0.00 0.00 56 1027.3
20260501185825 50 0.0 0.0 0.00 0.00 0.00 56 1027.1
20260501184821 50 0.0 0.0 0.00 0.00 0.00 55 1027.1
20260501183820 51 0.0 0.0 0.00 0.00 0.00 55 1027.1
20260501182820 51 0.0 0.0 0.00 0.00 0.00 53 1027.0